Weather History for Wayne, NE

Change the Weather History Date:

Saturday, September 21, 2013

  Actual Average (KOFK) Record (KOFK)
Temperature  
Mean Temperature 56 °F 62 °F  
Max Temperature 79 °F 75 °F 95 °F (2005)
Min Temperature 34 °F 49 °F 29 °F (1999)
Degree Days  
Heating Degree Days 8 5  
Month to date heating degree days 63  
Since 1 July heating degree days 79  
Cooling Degree Days 0 2  
Month to date cooling degree days 80  
Year to date cooling degree days 896  
Growing Degree Days 6 (Base 50)    
Moisture  
Dew Point 41 °F    
Average Humidity 62    
Maximum Humidity 95    
Minimum Humidity 27    
Precipitation  
Precipitation 0.00 in 0.09 in 1.02 in (2006)
Month to date precipitation 1.88  
Year to date precipitation 22.41  
Snow  
Snow 0.00 in 0.00 in - ()
Month to date snowfall 0.0  
Since 1 July snowfall 0.0  
Snow Depth -    
Sea Level Pressure  
Sea Level Pressure 29.95 in    
Wind  
Wind Speed 5 mph (SSE)    
Max Wind Speed 15 mph    
Max Gust Speed 20 mph    
Visibility 10 miles    
Events      
T = Trace of Precipitation, MM = Missing Value Source: NWS Daily Summary

Daily Weather History Graph

Daily Weather History Graph

Search for Another Location

Airport:

Trip Planner

Search our weather history database for the weather conditions in past years. The results will help you decide how hot, cold, wet, or windy it might be!

Date:

Astronomy

Sep. 21, 2013 Rise Set
Actual Time 7:14 AM CDT 7:26 PM CDT
Civil Twilight 6:46 AM CDT 7:54 PM CDT
Nautical Twilight 6:13 AM CDT 8:27 PM CDT
Astronomical Twilight 5:40 AM CDT 9:00 PM CDT
Moon 8:34 PM CDT (9/21) 9:37 AM CDT (9/21)
Length of Visible Light 13h 07m
Length of Day
12h 11m
Waning Gibbous, 94% of the Moon is Illuminated
Sep 21
Waning Gibbous
Sep 26
Last Quarter
Oct 4
New
Oct 11
First Quarter
Oct 18
Full

Hourly Weather History & Observations

Time (CDT) Temp. Windchill Dew Point Humidity Pressure Visibility Wind Dir Wind Speed Gust Speed Precip Events Conditions
12:15 AM 38.3 °F - 36.3 °F 93% 30.03 in 10.0 mi Calm Calm - N/A   Clear
12:35 AM 38.3 °F 35.9 °F 36.3 °F 93% 30.03 in 10.0 mi SW 3.5 mph - N/A   Clear
12:55 AM 39.2 °F 37.0 °F 37.6 °F 94% 30.03 in 10.0 mi South 3.5 mph - N/A   Clear
1:15 AM 39.0 °F - 37.4 °F 94% 30.03 in 10.0 mi Calm Calm - N/A   Clear
1:35 AM 39.0 °F - 37.0 °F 93% 30.03 in 10.0 mi Calm Calm - N/A   Clear
1:55 AM 37.2 °F 34.7 °F 35.2 °F 93% 30.03 in 10.0 mi SW 3.5 mph - N/A   Clear
2:15 AM 37.4 °F 34.9 °F 35.8 °F 94% 30.03 in 10.0 mi South 3.5 mph - N/A   Clear
2:35 AM 37.0 °F - 35.6 °F 95% 30.03 in 10.0 mi Calm Calm - N/A   Clear
2:55 AM 36.1 °F 33.5 °F 34.7 °F 94% 30.03 in 10.0 mi SSW 3.5 mph - N/A   Clear
3:15 AM 37.0 °F 34.5 °F 35.6 °F 95% 30.02 in 10.0 mi South 3.5 mph - N/A   Clear
3:35 AM 37.4 °F 34.9 °F 36.0 °F 95% 30.02 in 10.0 mi South 3.5 mph - N/A   Clear
3:55 AM 36.9 °F - 35.1 °F 93% 30.02 in 10.0 mi Calm Calm - N/A   Clear
4:15 AM 36.9 °F - 35.1 °F 93% 30.02 in 10.0 mi Calm Calm - N/A   Clear
4:35 AM 37.4 °F - 35.4 °F 93% 30.02 in 10.0 mi Calm Calm - N/A   Clear
4:55 AM 36.0 °F - 34.3 °F 94% 30.01 in 10.0 mi Calm Calm - N/A   Clear
5:15 AM 35.6 °F - 33.8 °F 93% 30.01 in 10.0 mi Calm Calm - N/A   Clear
5:35 AM 35.6 °F - 33.6 °F 92% 30.01 in 10.0 mi Calm Calm - N/A   Clear
5:55 AM 35.6 °F - 33.8 °F 93% 30.01 in 10.0 mi Calm Calm - N/A   Clear
6:15 AM 34.7 °F - 33.1 °F 94% 30.01 in 10.0 mi Calm Calm - N/A   Clear
6:35 AM 35.6 °F - 34.0 °F 94% 30.01 in 10.0 mi Calm Calm - N/A   Clear
6:55 AM 34.9 °F - 33.3 °F 94% 30.01 in 10.0 mi Calm Calm - N/A   Clear
7:15 AM 35.2 °F - 33.6 °F 94% 30.01 in 10.0 mi Calm Calm - N/A   Clear
7:35 AM 35.1 °F - 33.4 °F 94% 30.02 in 10.0 mi Calm Calm - N/A   Clear
7:55 AM 36.7 °F - 35.2 °F 95% 30.01 in 10.0 mi Calm Calm - N/A   Clear
8:15 AM 39.0 °F - 37.0 °F 93% 30.02 in 10.0 mi Calm Calm - N/A   Clear
8:35 AM 42.1 °F - 39.2 °F 90% 30.02 in 10.0 mi Calm Calm - N/A   Clear
8:55 AM 45.5 °F - 41.7 °F 87% 30.02 in 10.0 mi Calm Calm - N/A   Clear
9:15 AM 51.4 °F - 44.1 °F 76% 30.02 in 10.0 mi Calm Calm - N/A   Clear
9:35 AM 57.9 °F - 44.6 °F 61% 30.02 in 10.0 mi SSW 4.6 mph - N/A   Clear
9:55 AM 61.5 °F - 41.0 °F 47% 30.02 in 10.0 mi South 10.4 mph - N/A   Clear
10:15 AM 63.7 °F - 40.5 °F 43% 30.01 in 10.0 mi South 8.1 mph - N/A   Clear
10:35 AM 65.5 °F - 40.6 °F 40% 30.01 in 10.0 mi South 10.4 mph - N/A   Clear
10:55 AM 67.3 °F - 41.5 °F 39% 30.01 in 10.0 mi South 9.2 mph - N/A   Clear
11:15 AM 68.5 °F - 40.3 °F 36% 30.00 in 10.0 mi South 10.4 mph - N/A   Clear
11:35 AM 70.0 °F - 41.0 °F 35% 30.00 in 10.0 mi South 9.2 mph - N/A   Clear
11:55 AM 70.9 °F - 40.5 °F 33% 29.99 in 10.0 mi SSE 9.2 mph - N/A   Clear
12:15 PM 72.1 °F - 40.5 °F 32% 29.98 in 10.0 mi SSE 8.1 mph 16.1 mph N/A   Clear
12:35 PM 72.9 °F - 39.7 °F 30% 29.97 in 10.0 mi South 10.4 mph 16.1 mph N/A   Clear
12:55 PM 73.2 °F - 39.7 °F 30% 29.96 in 10.0 mi SSE 10.4 mph - N/A   Clear
1:15 PM 74.1 °F - 40.3 °F 29% 29.96 in 10.0 mi SE 12.7 mph 16.1 mph N/A   Clear
1:35 PM 75.2 °F - 40.3 °F 28% 29.95 in 10.0 mi South 10.4 mph 18.4 mph N/A   Clear
1:55 PM 76.1 °F - 40.8 °F 28% 29.93 in 10.0 mi SSE 11.5 mph 19.6 mph N/A   Clear
2:15 PM 76.5 °F - 41.2 °F 28% 29.92 in 10.0 mi SSE 13.8 mph 18.4 mph N/A   Clear
2:35 PM 77.4 °F - 41.2 °F 27% 29.91 in 10.0 mi SSE 13.8 mph 18.4 mph N/A   Clear
2:55 PM 78.1 °F - 41.4 °F 27% 29.91 in 10.0 mi SSE 15.0 mph 18.4 mph N/A   Clear
3:15 PM 78.1 °F - 41.7 °F 27% 29.90 in 10.0 mi SSE 15.0 mph - N/A   Clear
3:35 PM 78.8 °F - 41.9 °F 27% 29.89 in 10.0 mi SSE 15.0 mph 19.6 mph N/A   Clear
3:55 PM 79.7 °F - 42.6 °F 27% 29.88 in 10.0 mi SSE 15.0 mph 18.4 mph N/A   Clear
4:15 PM 79.3 °F - 43.0 °F 27% 29.88 in 10.0 mi SSE 12.7 mph - N/A   Clear
4:35 PM 79.2 °F - 43.5 °F 28% 29.86 in 10.0 mi South 12.7 mph 18.4 mph N/A   Clear
4:55 PM 79.2 °F - 43.7 °F 28% 29.86 in 10.0 mi South 12.7 mph 19.6 mph N/A   Clear
5:15 PM 79.2 °F - 44.1 °F 29% 29.85 in 10.0 mi SSE 12.7 mph 18.4 mph N/A   Clear
5:35 PM 78.6 °F - 44.4 °F 30% 29.85 in 10.0 mi SSE 13.8 mph - N/A   Clear
5:55 PM 77.9 °F - 45.1 °F 31% 29.85 in 10.0 mi SSE 13.8 mph - N/A   Clear
6:15 PM 77.0 °F - 45.9 °F 33% 29.85 in 10.0 mi SSE 11.5 mph - N/A   Clear
6:35 PM 75.7 °F - 47.1 °F 36% 29.84 in 10.0 mi SE 10.4 mph - N/A   Clear
6:55 PM 74.1 °F - 48.0 °F 40% 29.84 in 10.0 mi SE 9.2 mph - N/A   Clear
7:15 PM 70.9 °F - 49.6 °F 47% 29.84 in 10.0 mi SE 9.2 mph - N/A   Clear
7:35 PM 68.9 °F - 50.0 °F 51% 29.83 in 10.0 mi SE 9.2 mph - N/A   Clear
7:55 PM 68.0 °F - 50.0 °F 52% 29.84 in 10.0 mi SE 10.4 mph - N/A   Clear
8:15 PM 66.9 °F - 50.0 °F 54% 29.84 in 10.0 mi SE 10.4 mph - N/A   Clear
8:35 PM 66.6 °F - 50.0 °F 55% 29.84 in 10.0 mi SE 11.5 mph - N/A   Clear
8:55 PM 64.6 °F - 50.2 °F 60% 29.84 in 10.0 mi SE 10.4 mph - N/A   Clear
9:15 PM 63.9 °F - 50.4 °F 61% 29.85 in 10.0 mi SE 10.4 mph - N/A   Clear
9:35 PM 63.5 °F - 50.4 °F 62% 29.84 in 10.0 mi SE 10.4 mph - N/A   Clear
9:55 PM 63.7 °F - 50.0 °F 61% 29.85 in 10.0 mi SE 10.4 mph 16.1 mph N/A   Clear
10:15 PM 62.6 °F - 50.0 °F 63% 29.85 in 10.0 mi SSE 10.4 mph - N/A   Clear
10:35 PM 62.6 °F - 50.0 °F 63% 29.85 in 10.0 mi SSE 11.5 mph - N/A   Clear
10:55 PM 62.6 °F - 50.0 °F 63% 29.85 in 10.0 mi SSE 10.4 mph - N/A   Clear
11:15 PM 62.1 °F - 50.0 °F 65% 29.85 in 10.0 mi SSE 10.4 mph - N/A   Clear
11:35 PM 61.7 °F - 50.2 °F 66% 29.85 in 10.0 mi SSE 10.4 mph - N/A   Clear
11:55 PM 61.7 °F - 50.2 °F 66% 29.84 in 10.0 mi SSE 11.5 mph - N/A   Clear